Volver al catálogo

EDRS-C

ActivoComunicacionesGEO
NORAD 44475·PAYLOAD·🇪🇺 EU

Lanzado Aug 6, 2019 desde Guiana Space Centre

Loading…

TLE

ActualizadoSource: Space-Track

Época: Sep 14, 2026, 12:46 UTC

1 44475U 19049A   26257.53206206 -.00000270  00000-0  00000-0 0  9993
2 44475   0.0124 183.2334 0001107 347.2347 157.0850  1.00271718 26108

Sigue EDRS-C en tiempo real con AllMySat

Download on the App Store